• In Hungary
  • List of Countries
  • For 7 days
  • Water Temperature
  • Satellite Maps
  • Weather Map
  • News
  • Weather Widgets
  • user-avatar
    Login

    Hourly Weather Elabuga

    Today, 23 September, Sunday

    Time Temperature Precipitation Wind Pressure Humidity
    00:00 +15°C° 0 mm 1 mps 754 mmHg 93%
    01:00 +15°C° 0 mm 1 mps 754 mmHg 93%
    02:00 +15°C° 0 mm 2 mps 754 mmHg 93%
    03:00 +15°C° 0 mm 2 mps 754 mmHg 93%
    04:00 +14°C° 0 mm 2 mps 754 mmHg 93%
    05:00 +14°C° 0 mm 2 mps 754 mmHg 93%
    06:00 +14°C° 0 mm 2 mps 754 mmHg 93%
    07:00 +16°C° 0 mm 2 mps 754 mmHg 88%
    08:00 +17°C° 0 mm 2 mps 753 mmHg 83%
    09:00 +19°C° 0 mm 3 mps 753 mmHg 78%
    10:00 +20°C° 0 mm 3 mps 753 mmHg 74%
    11:00 +22°C° 0 mm 3 mps 753 mmHg 69%
    12:00 +23°C° 0 mm 4 mps 753 mmHg 65%
    13:00 +23°C° 0 mm 4 mps 752 mmHg 65%
    14:00 +23°C° 0 mm 4 mps 752 mmHg 65%
    15:00 +23°C° 0 mm 4 mps 752 mmHg 65%
    16:00 +21°C° 0 mm 4 mps 751 mmHg 71%
    17:00 +20°C° 0 mm 4 mps 751 mmHg 77%
    18:00 +18°C° 0 mm 3 mps 751 mmHg 83%
    19:00 +18°C° 0 mm 3 mps 751 mmHg 84%
    20:00 +18°C° 0 mm 3 mps 751 mmHg 84%
    21:00 +17°C° 0 mm 4 mps 750 mmHg 85%
    22:00 +17°C° 0 mm 4 mps 750 mmHg 84%
    23:00 +15°C° 0 mm 4 mps 750 mmHg 83%

    Tomorrow, 24 September, Monday

    Time Temperature Precipitation Wind Pressure Humidity
    00:00 +15°C° 0 mm 4 mps 749 mmHg 82%
    01:00 +15°C° 0 mm 4 mps 749 mmHg 79%
    02:00 +14°C° 0 mm 4 mps 749 mmHg 76%
    03:00 +14°C° 0 mm 5 mps 748 mmHg 72%
    04:00 +14°C° 0 mm 5 mps 748 mmHg 68%
    05:00 +13°C° 0 mm 5 mps 748 mmHg 64%
    06:00 +13°C° 0 mm 5 mps 747 mmHg 60%
    07:00 +14°C° 0 mm 6 mps 747 mmHg 56%
    08:00 +16°C° 0 mm 6 mps 747 mmHg 53%
    09:00 +17°C° 0 mm 7 mps 747 mmHg 49%
    10:00 +18°C° 0 mm 7 mps 747 mmHg 49%
    11:00 +18°C° 0 mm 7 mps 747 mmHg 48%
    12:00 +20°C° 0 mm 7 mps 747 mmHg 48%
    13:00 +17°C° 0.4 mm 7 mps 747 mmHg 58%
    14:00 +15°C° 0.4 mm 6 mps 748 mmHg 69%
    15:00 +13°C° 0.4 mm 5 mps 748 mmHg 80%
    16:00 +12°C° 0.2 mm 5 mps 748 mmHg 81%
    17:00 +11°C° 0.2 mm 4 mps 748 mmHg 83%
    18:00 +10°C° 0.2 mm 4 mps 749 mmHg 85%
    19:00 +10°C° 0 mm 3 mps 749 mmHg 86%
    20:00 +9°C° 0 mm 2 mps 749 mmHg 88%
    21:00 +8°C° 0 mm 2 mps 749 mmHg 89%
    22:00 +8°C° 0 mm 2 mps 750 mmHg 89%
    23:00 +8°C° 0 mm 1 mps 750 mmHg 89%

    Day after tomorrow, 25 September, Tuesday

    Time Temperature Precipitation Wind Pressure Humidity
    00:00 +8°C° 0 mm 1 mps 750 mmHg 90%
    01:00 +8°C° 0 mm 1 mps 750 mmHg 90%
    02:00 +8°C° 0 mm 1 mps 750 mmHg 90%
    03:00 +8°C° 0 mm 1 mps 750 mmHg 90%
    04:00 +8°C° 0 mm 1 mps 749 mmHg 89%
    05:00 +7°C° 0 mm 2 mps 749 mmHg 88%
    06:00 +7°C° 0 mm 2 mps 748 mmHg 87%
    07:00 +9°C° 0 mm 2 mps 748 mmHg 82%
    08:00 +10°C° 0 mm 3 mps 748 mmHg 77%
    09:00 +11°C° 0 mm 4 mps 747 mmHg 72%
    10:00 +11°C° 0 mm 4 mps 747 mmHg 71%
    11:00 +12°C° 0 mm 4 mps 747 mmHg 70%
    12:00 +12°C° 0 mm 5 mps 746 mmHg 70%
    13:00 +12°C° 0.7 mm 5 mps 746 mmHg 73%
    14:00 +12°C° 0.7 mm 5 mps 746 mmHg 77%
    15:00 +10°C° 0.7 mm 5 mps 745 mmHg 80%
    16:00 +10°C° 0.5 mm 5 mps 745 mmHg 80%
    17:00 +10°C° 0.5 mm 6 mps 745 mmHg 81%
    18:00 +10°C° 0.5 mm 6 mps 745 mmHg 81%
    19:00 +11°C° 0.2 mm 6 mps 744 mmHg 81%
    20:00 +12°C° 0.2 mm 5 mps 744 mmHg 80%
    21:00 +12°C° 0.2 mm 5 mps 744 mmHg 80%
    22:00 +12°C° 0.1 mm 5 mps 744 mmHg 82%
    23:00 +10°C° 0.1 mm 5 mps 744 mmHg 84%

    26 September, Wednesday

    Time Temperature Precipitation Wind Pressure Humidity
    00:00 +10°C° 0.1 mm 5 mps 744 mmHg 86%
    01:00 +9°C° 0 mm 5 mps 745 mmHg 85%
    02:00 +8°C° 0 mm 6 mps 745 mmHg 85%
    03:00 +8°C° 0 mm 6 mps 746 mmHg 85%
    04:00 +7°C° 0 mm 6 mps 746 mmHg 86%
    05:00 +7°C° 0 mm 6 mps 747 mmHg 87%
    06:00 +5°C° 0 mm 6 mps 747 mmHg 88%
    07:00 +7°C° 0 mm 6 mps 747 mmHg 83%
    08:00 +8°C° 0 mm 7 mps 748 mmHg 79%
    09:00 +8°C° 0 mm 7 mps 748 mmHg 75%
    10:00 +9°C° 0 mm 7 mps 749 mmHg 74%
    11:00 +9°C° 0 mm 7 mps 749 mmHg 73%
    12:00 +9°C° 0 mm 7 mps 749 mmHg 72%
    13:00 +9°C° 0 mm 6 mps 750 mmHg 72%
    14:00 +9°C° 0 mm 6 mps 750 mmHg 72%
    15:00 +9°C° 0 mm 5 mps 750 mmHg 72%
    16:00 +8°C° 0 mm 5 mps 750 mmHg 74%
    17:00 +8°C° 0 mm 4 mps 751 mmHg 76%
    18:00 +8°C° 0 mm 4 mps 751 mmHg 78%
    19:00 +7°C° 0 mm 4 mps 751 mmHg 80%
    20:00 +7°C° 0 mm 4 mps 751 mmHg 82%
    21:00 +6°C° 0 mm 4 mps 751 mmHg 84%
    22:00 +7°C° 0 mm 3 mps 751 mmHg 84%
    23:00 +7°C° 0 mm 3 mps 751 mmHg 84%

    27 September, Thursday

    Time Temperature Precipitation Wind Pressure Humidity
    00:00 +7°C° 0 mm 3 mps 751 mmHg 85%
    01:00 +5°C° 0 mm 3 mps 751 mmHg 85%
    02:00 +5°C° 0 mm 3 mps 751 mmHg 86%
    03:00 +5°C° 0 mm 3 mps 751 mmHg 86%
    04:00 +4°C° 0 mm 3 mps 751 mmHg 86%
    05:00 +4°C° 0 mm 4 mps 751 mmHg 86%
    06:00 +3°C° 0 mm 4 mps 751 mmHg 87%
    07:00 +3°C° 0 mm 5 mps 750 mmHg 79%
    08:00 +5°C° 0 mm 5 mps 750 mmHg 72%
    09:00 +5°C° 0 mm 6 mps 749 mmHg 65%
    10:00 +6°C° 0 mm 7 mps 749 mmHg 62%
    11:00 +8°C° 0 mm 7 mps 748 mmHg 60%
    12:00 +9°C° 0 mm 8 mps 748 mmHg 57%
    13:00 +9°C° 0 mm 8 mps 747 mmHg 60%
    14:00 +9°C° 0 mm 8 mps 747 mmHg 62%
    15:00 +7°C° 0 mm 9 mps 746 mmHg 65%
    16:00 +7°C° 0.2 mm 8 mps 745 mmHg 69%
    17:00 +6°C° 0.2 mm 8 mps 745 mmHg 73%
    18:00 +5°C° 0.2 mm 8 mps 744 mmHg 77%
    19:00 +5°C° 0.4 mm 8 mps 744 mmHg 80%
    20:00 +5°C° 0.4 mm 8 mps 744 mmHg 82%
    21:00 +5°C° 0.4 mm 8 mps 743 mmHg 85%
    22:00 +5°C° 0.1 mm 7 mps 743 mmHg 86%
    23:00 +5°C° 0.1 mm 7 mps 743 mmHg 87%

    28 September, Friday

    Time Temperature Precipitation Wind Pressure Humidity
    00:00 +5°C° 0.1 mm 6 mps 743 mmHg 87%
    01:00 +5°C° 0.4 mm 6 mps 742 mmHg 88%
    02:00 +5°C° 0.4 mm 6 mps 742 mmHg 89%
    03:00 +5°C° 0.4 mm 6 mps 741 mmHg 90%
    04:00 +5°C° 0.7 mm 6 mps 741 mmHg 90%
    05:00 +5°C° 0.7 mm 7 mps 740 mmHg 90%
    06:00 +5°C° 0.7 mm 7 mps 739 mmHg 89%
    07:00 +6°C° 0.5 mm 7 mps 739 mmHg 88%
    08:00 +6°C° 0.5 mm 8 mps 739 mmHg 87%
    09:00 +7°C° 0.5 mm 8 mps 739 mmHg 86%
    10:00 +7°C° 0.4 mm 8 mps 740 mmHg 85%
    11:00 +9°C° 0.4 mm 7 mps 740 mmHg 83%
    12:00 +9°C° 0.4 mm 7 mps 740 mmHg 81%
    13:00 +9°C° 0.3 mm 7 mps 741 mmHg 78%
    14:00 +10°C° 0.3 mm 7 mps 741 mmHg 75%
    15:00 +10°C° 0.3 mm 8 mps 742 mmHg 72%
    16:00 +9°C° 0.1 mm 7 mps 742 mmHg 75%
    17:00 +8°C° 0.1 mm 6 mps 743 mmHg 78%
    18:00 +7°C° 0.1 mm 5 mps 744 mmHg 81%
    19:00 +7°C° 0 mm 5 mps 744 mmHg 83%
    20:00 +6°C° 0 mm 4 mps 745 mmHg 84%
    21:00 +6°C° 0 mm 4 mps 745 mmHg 86%
    22:00 +6°C° 0 mm 4 mps 745 mmHg 87%
    23:00 +6°C° 0 mm 4 mps 745 mmHg 88%
    Show more